TimeEST,TemperatureF,Dew PointF,Humidity,Sea Level PressureIn,VisibilityMPH,Wind Direction,Wind SpeedMPH,Gust SpeedMPH,PrecipitationIn,Events,Conditions,WindDirDegrees,DateUTC
12:15 AM,39.2,30.2,70,30.32,10.0,Calm,Calm,-,N/A,,Clear,0,2013-01-24 05:15:00
12:55 AM,37.4,28.4,70,30.31,10.0,Calm,Calm,-,N/A,,Clear,0,2013-01-24 05:55:00
1:15 AM,37.4,28.4,70,30.31,10.0,Calm,Calm,-,N/A,,Clear,0,2013-01-24 06:15:00
1:35 AM,39.2,30.2,70,30.30,10.0,Calm,Calm,-,N/A,,Clear,0,2013-01-24 06:35:00
1:55 AM,37.4,28.4,70,30.30,10.0,South,3.5,-,N/A,,Clear,190,2013-01-24 06:55:00
2:15 AM,37.4,28.4,70,30.30,10.0,South,3.5,-,N/A,,Clear,190,2013-01-24 07:15:00
2:35 AM,37.4,28.4,70,30.30,10.0,Calm,Calm,-,N/A,,Clear,0,2013-01-24 07:35:00
2:55 AM,37.4,28.4,70,30.31,10.0,Calm,Calm,-,N/A,,Clear,0,2013-01-24 07:55:00
3:15 AM,37.4,28.4,70,30.31,10.0,Calm,Calm,-,N/A,,Clear,0,2013-01-24 08:15:00
3:35 AM,37.4,28.4,70,30.31,10.0,Calm,Calm,-,N/A,,Clear,0,2013-01-24 08:35:00
3:55 AM,35.6,28.4,75,30.31,10.0,Calm,Calm,-,N/A,,Clear,0,2013-01-24 08:55:00
4:15 AM,35.6,28.4,75,30.31,10.0,Calm,Calm,-,N/A,,Clear,0,2013-01-24 09:15:00
4:35 AM,35.6,28.4,75,30.29,10.0,South,5.8,-,N/A,,Clear,180,2013-01-24 09:35:00
4:55 AM,35.6,28.4,75,30.29,10.0,Calm,Calm,-,N/A,,Clear,0,2013-01-24 09:55:00
5:15 AM,35.6,28.4,75,30.29,10.0,Calm,Calm,-,N/A,,Clear,0,2013-01-24 10:15:00
5:35 AM,37.4,30.2,75,30.29,10.0,Calm,Calm,-,N/A,,Clear,0,2013-01-24 10:35:00
5:55 AM,35.6,28.4,75,30.30,10.0,Calm,Calm,-,N/A,,Clear,0,2013-01-24 10:55:00
6:15 AM,35.6,28.4,75,30.29,10.0,South,3.5,-,N/A,,Clear,190,2013-01-24 11:15:00
6:35 AM,35.6,28.4,75,30.30,10.0,South,3.5,-,N/A,,Clear,190,2013-01-24 11:35:00
7:50 AM,35.6,33.8,93,30.32,10.0,Calm,Calm,-,N/A,,Clear,0,2013-01-24 12:50:00
8:50 AM,46.4,41.0,81,30.33,7.0,Calm,Calm,-,N/A,,Clear,0,2013-01-24 13:50:00
9:50 AM,59.0,46.4,63,30.34,5.0,NW,9.2,-,N/A,,Smoke,310,2013-01-24 14:50:00
10:50 AM,64.4,46.4,52,30.35,5.0,West,8.1,-,N/A,,Smoke,280,2013-01-24 15:50:00
11:50 AM,66.2,48.2,52,30.32,7.0,West,6.9,16.1,N/A,,Clear,280,2013-01-24 16:50:00
12:50 PM,69.8,46.4,43,30.28,7.0,WNW,9.2,-,N/A,,Clear,290,2013-01-24 17:50:00
1:50 PM,71.6,46.4,41,30.25,9.0,WNW,10.4,16.1,N/A,,Scattered Clouds,290,2013-01-24 18:50:00
2:50 PM,73.4,48.2,41,30.24,10.0,NW,10.4,-,N/A,,Scattered Clouds,310,2013-01-24 19:50:00
3:50 PM,69.8,46.4,43,30.24,10.0,WNW,8.1,-,N/A,,Scattered Clouds,300,2013-01-24 20:50:00
4:50 PM,69.8,46.4,43,30.24,10.0,West,8.1,-,N/A,,Partly Cloudy,270,2013-01-24 21:50:00
5:50 PM,66.2,46.4,49,30.25,10.0,West,4.6,-,N/A,,Clear,280,2013-01-24 22:50:00
6:50 PM,60.8,50.0,68,30.26,10.0,SW,5.8,-,N/A,,Clear,220,2013-01-24 23:50:00
7:55 PM,57.2,46.4,67,30.28,10.0,WSW,4.6,-,N/A,,Clear,240,2013-01-25 00:55:00
8:15 PM,57.2,46.4,67,30.28,10.0,WSW,3.5,-,N/A,,Clear,250,2013-01-25 01:15:00
8:35 PM,55.4,46.4,72,30.29,10.0,SW,3.5,-,N/A,,Clear,220,2013-01-25 01:35:00
8:55 PM,55.4,46.4,72,30.29,10.0,SW,3.5,-,N/A,,Clear,220,2013-01-25 01:55:00
9:15 PM,53.6,46.4,77,30.28,10.0,SSW,3.5,-,N/A,,Clear,210,2013-01-25 02:15:00
9:35 PM,53.6,46.4,77,30.29,10.0,Calm,Calm,-,N/A,,Clear,0,2013-01-25 02:35:00
9:55 PM,51.8,44.6,76,30.29,5.0,SSW,3.5,-,N/A,,Clear,210,2013-01-25 02:55:00
10:15 PM,51.8,44.6,76,30.30,3.0,SW,3.5,-,N/A,,Clear,220,2013-01-25 03:15:00
10:35 PM,50.0,44.6,82,30.30,0.8,SSW,3.5,-,N/A,,Unknown,210,2013-01-25 03:35:00
10:55 PM,51.8,44.6,76,30.30,0.2,SSW,3.5,-,N/A,,Mostly Cloudy,200,2013-01-25 03:55:00
11:15 PM,51.8,44.6,76,30.30,0.8,Calm,Calm,-,N/A,,Overcast,0,2013-01-25 04:15:00
11:35 PM,51.8,44.6,76,30.31,5.0,Calm,Calm,-,N/A,,Mostly Cloudy,0,2013-01-25 04:35:00
11:55 PM,51.8,46.4,82,30.31,7.0,Calm,Calm,-,N/A,,Overcast,0,2013-01-25 04:55:00